sat.trackr.live / text

‹ back to catalog

SSOT

NORAD 38011 · 2011-076E

PAYLOAD ACTIVE UNKNOWN

§ Identity

Operator
Country
CHLE
Launch date
2011-12-17
Launch site
FRGUI
Launch vehicle
Mass (kg)
RCS (m²)
0.73

External: N2YO · Heavens-Above · Gunter

§ Orbital elements

Epoch: 2026-05-25T04:55:22.996992Z

Period
97.14 min
Inclination
97.8074°
Eccentricity
0.0001414
Mean motion
14.82447351 rev/d
Perigee alt
620.6 km
Apogee alt
622.6 km
Semi-major
6,999.7 km
B*
1.1820e-4
RAAN
206.1519°
Arg perigee
97.0596°
Mean anomaly
348.8204°
Rev number
78,097

§ Raw data

SSOT1 38011U 11076E   26145.20512728  .00000896  00000+0  11820-3 0  99902 38011  97.8074 206.1519 0001414  97.0596 348.8204 14.82447351780979

JSON: /api/v1/satellites/38011 · /tle

For live sub-satellite position, see the globe view (requires WebGL).

§ Visibility from observer

Set your observer location to see the next 7 days of passes ≥ 10°. The values pass through the URL so the page stays shareable.

No JS? Fill the form by hand. The geolocation button needs JavaScript.